Погода в Шемышейке

Россия / Пензенская область     52°53′23″N   45°23′52″E
темп.,
°C
ветер,
м/с
пор.,
м/с
влажн.,
%
обл.,
%
осадки,
мм/ч
давл.,
гПа
погр.,
м
13 апреля, вт
вт1300:00+10вюв378178 0.0 1032113
03:00+8вюв347791 0.0 103246
06:00+7вюв377755 0.0 1033115
09:00+14юв594961 0.0 1032416
12:00+18юв57345 0.0 1031892
15:00+18юв67315 0.0 10301137
18:00+15вюв364875 0.0 102997
21:00+10вюв486298 0.0 1030123
14 апреля, ср
ср1400:00+8вюв376425 0.0 1029116
03:00+7вюв346820 0.0 102948
06:00+6вюв38715 0.0 1028124
09:00+13вюв59490 0.0 1026472
12:00+17юв68380 0.0 10251059
15:00+18юв68390 0.0 10231387
18:00+15юв37545 0.0 1022144
21:00+10вюв37745 0.0 1022106
15 апреля, чт
чт1500:00+9вюв35805 0.0 102167
03:00+7вюв33835 0.0 102138
06:00+8вюв358396 0.0 102174
09:00+15вюв455797 0.0 1019367
12:00+18вюв564389 0.0 1018994
15:00+20юв45374 0.0 10171458
18:00+17вюв345348 0.0 101659
21:00
16 апреля, пт
пт1600:00+11в347164 0.0 101646
03:00+9в337499 0.0 101626
06:00+9в347497 0.0 101665
09:00+15в464878 0.0 1016404
12:00+19вюв453299 0.0 10151959
15:00+19вюв3431100 0.0 10152335
18:00+16юв2246100 0.0 101511
21:00+12св4985100 3.7 1018304
17 апреля, сб
сб1700:00+9св511886 0.0 1018328
03:00+7св5119295 0.0 1019303
06:00+6св4109076 0.0 1020327
09:00+11всв68706 0.0 1020633
12:00+13всв675838 0.0 10201005
15:00+14всв774838 0.0 10201443
18:00+10св711444 0.0 1021744
21:00+6всв513520 0.0 1024423